Probability
0 2 5 8 9 8 6 4 3 1 0 1 2 3 3 3 1 0 1 2 3 3 2 2 3 3 3 1 0 0 0 0 0 0 0 0 0 0 0 0 0 0 0
1 3 7 10 10 9 6 5 4 2 1 0 1 2 3 3 2 1 1 3 3 3 3 3 4 4 3 2 0 0 0 0 0 0 0 0 0 0 0 0 0 0 0
1 4 8 12 12 10 7 6 5 3 1 0 1 2 3 3 3 3 3 3 3 4 5 6 6 5 4 3 1 0 0 0 0 0 0 0 0 0 0 0 0 0 0
1 4 9 14 14 12 8 6 5 4 2 2 3 4 4 4 4 4 3 3 4 5 6 6 6 6 6 5 3 1 0 0 0 0 0 0 0 0 0 0 0 0 0
2 4 9 14 15 13 8 5 4 5 5 5 5 6 6 6 6 5 4 4 5 6 6 6 6 6 6 6 5 3 1 0 0 0 0 0 0 0 0 0 0 0 0
3 5 9 13 15 14 9 5 5 6 8 7 6 6 6 7 7 6 6 6 6 7 7 7 6 6 6 6 5 4 2 1 0 0 0 0 0 0 0 0 1 1 1
4 5 9 12 15 14 11 8 5 5 7 7 6 6 6 7 8 9 8 7 7 8 8 7 6 6 6 6 6 5 3 1 0 0 0 0 0 0 0 0 1 2 1
4 6 8 11 13 14 12 8 6 4 4 5 5 6 7 8 9 11 10 9 9 10 9 8 7 6 6 6 6 5 2 0 0 0 0 0 0 0 0 0 1 2 1
4 6 8 10 11 11 9 7 5 4 3 3 4 6 7 7 8 9 10 11 12 12 10 9 7 7 6 6 6 4 1 0 1 2 1 0 1 1 1 0 1 1 1
4 5 8 10 10 10 8 5 4 3 3 3 3 4 5 5 4 5 6 10 13 14 12 10 9 7 7 6 6 3 1 1 2 3 2 1 1 2 1 0 1 1 1
4 5 9 12 12 11 8 5 3 3 3 3 3 3 3 3 2 3 3 6 11 13 11 10 9 8 7 6 5 2 1 2 3 3 2 1 1 2 2 2 2 2 1
4 5 7 10 13 13 11 8 7 6 4 3 3 4 4 4 5 5 4 4 7 9 9 9 8 7 7 6 4 2 2 3 3 3 3 2 2 3 3 3 3 3 2
4 4 4 6 10 14 14 12 11 10 7 6 5 6 8 9 9 10 8 6 6 7 8 9 8 7 7 7 5 3 3 3 3 3 3 2 3 3 3 3 3 3 2
4 3 3 4 8 12 14 14 13 13 11 9 8 9 11 12 12 12 10 8 7 8 9 9 9 8 7 7 5 4 3 3 3 3 3 2 3 3 3 3 3 2 1
3 3 4 5 6 9 11 12 12 13 12 11 11 11 11 11 11 10 9 8 8 8 9 9 9 8 7 6 5 4 3 3 3 3 2 1 2 3 3 3 3 2 1
1 2 4 6 6 6 6 8 10 12 13 12 11 10 10 10 10 9 8 7 7 7 8 9 7 7 7 6 5 4 3 3 3 3 3 2 2 2 3 3 3 3 2
0 1 2 4 5 3 2 3 7 10 11 11 9 8 8 8 8 8 8 7 6 6 8 7 7 6 6 6 5 3 2 2 2 2 2 2 2 2 2 3 3 3 3
0 0 1 3 3 1 0 1 4 7 8 8 7 7 7 7 7 8 9 8 6 6 6 6 6 6 6 6 5 2 1 1 1 1 1 2 2 2 2 2 3 3 3
0 0 2 3 2 1 0 0 2 5 6 6 6 7 7 7 6 7 9 9 7 6 5 4 5 6 5 4 3 2 0 0 0 0 0 1 1 1 1 1 1 2 2
0 0 1 2 2 1 0 0 1 3 5 5 6 6 7 7 6 7 9 9 7 6 4 3 4 3 3 2 2 1 0 0 0 0 0 0 0 0 0 0 0 1 1
0 0 1 1 1 0 0 1 1 1 2 4 5 5 5 6 5 6 7 8 6 5 4 3 2 1 1 1 2 1 0 0 0 0 0 0 0 0 0 0 0 0 0
0 0 0 0 0 0 0 1 2 2 1 2 3 4 4 4 4 4 5 5 5 4 3 2 1 0 0 1 1 1 0 0 0 0 0 0 0 1 1 0 0 0 0
0 0 0 0 0 0 0 0 1 2 2 2 2 3 3 4 3 3 3 4 3 3 2 1 0 0 0 0 0 0 0 0 0 0 0 0 0 1 1 1 0 0 0
0 0 0 0 0 0 0 0 1 2 3 3 2 2 3 4 3 2 2 3 3 3 1 0 0 0 0 0 0 0 0 0 0 0 0 0 0 1 2 1 0 0 0
0 0 0 0 0 0 0 0 0 1 2 3 3 3 4 4 4 3 2 3 3 2 1 0 0 0 0 0 0 0 0 0 0 0 0 0 0 1 2 1 0 0 0
0 0 0 0 0 0 0 0 0 0 1 3 3 4 4 5 5 3 3 2 2 2 1 0 0 0 0 0 0 0 0 0 0 0 0 0 0 1 2 1 0 0 0
Wind_Speed
1 2 2 2 4 5 5 5 6 6 6 7 8 9 9 9 9 10 10 10 10 10 11 11 12 12 13 13 13 13 13 13 14 13 13 13 14 14 14 11 11 13 15
1 3 3 2 4 5 5 5 6 6 7 6 7 8 8 9 9 9 9 9 10 10 11 11 12 12 12 12 13 13 13 13 13 11 10 11 12 13 14 13 12 11 15
1 3 4 3 4 5 5 5 5 6 6 6 6 7 8 8 9 9 9 9 10 10 10 11 12 12 12 12 12 13 13 12 11 7 6 10 11 13 14 14 14 15 14
1 3 4 3 4 5 4 5 5 6 6 6 6 7 7 8 8 9 9 9 9 9 10 11 11 12 11 12 12 12 12 11 8 4 6 9 10 12 13 14 14 14 14
2 3 3 3 4 5 4 5 5 5 6 6 6 6 6 7 8 8 8 9 9 9 10 10 11 11 11 12 12 12 11 9 6 5 8 8 9 12 13 13 13 13 14
3 3 4 3 4 4 4 4 5 5 6 5 5 6 6 6 7 8 8 9 9 9 10 10 10 11 11 11 11 11 10 6 5 7 7 7 8 11 12 12 12 13 14
2 2 3 3 3 4 4 4 4 5 5 5 5 5 5 6 7 7 8 9 9 9 10 10 10 10 10 10 11 10 9 4 6 7 7 7 8 11 12 12 12 13 14
1 1 3 3 3 4 4 4 4 4 4 5 5 5 5 6 6 7 8 8 9 9 9 10 10 10 10 10 10 10 8 4 6 7 7 8 9 10 12 12 13 13 14
1 1 1 2 3 3 3 3 3 4 4 4 4 5 5 6 6 7 8 8 8 8 9 9 10 10 10 10 10 9 7 4 6 5 6 6 7 10 11 12 12 13 13
1 1 1 1 2 2 3 3 3 3 3 3 4 4 4 5 5 6 7 7 8 8 9 9 10 10 10 10 9 8 5 2 6 6 5 6 7 10 11 12 12 13 13
1 1 1 1 0 1 2 3 3 3 3 3 4 4 3 4 5 5 6 7 8 8 9 9 10 9 9 9 8 6 3 3 5 4 5 7 8 9 11 11 12 12 12
1 1 1 0 0 1 1 2 2 2 2 2 3 3 3 3 3 3 6 7 8 8 8 9 9 8 5 5 5 3 2 4 4 4 5 7 8 9 10 11 11 11 11
2 1 1 1 1 1 1 1 1 1 1 2 2 3 2 3 2 3 3 4 5 6 5 6 5 4 3 3 3 3 3 3 2 3 5 7 8 9 9 10 10 11 11
2 2 2 2 1 1 1 1 1 1 1 1 1 2 2 2 2 3 2 3 3 3 3 3 3 4 4 4 4 4 4 3 3 3 5 7 7 8 9 9 9 10 11
3 3 3 2 1 1 1 1 1 1 1 1 1 1 2 2 2 2 2 2 2 2 3 3 3 4 4 4 3 4 4 3 3 3 3 7 7 7 8 8 8 9 10
4 4 3 2 2 1 1 1 1 2 1 1 1 1 2 2 2 2 2 2 2 2 3 3 4 4 3 3 4 4 4 3 3 3 3 4 7 8 7 8 8 8 8
3 3 3 3 2 1 1 1 1 1 2 2 1 2 2 2 2 2 2 2 2 2 3 3 4 3 3 4 4 4 3 3 3 3 3 2 3 6 8 7 8 8 8
4 3 3 2 2 2 1 1 1 1 2 1 1 2 2 2 2 2 2 2 2 2 3 3 4 4 3 3 3 3 3 3 3 3 3 3 2 2 5 8 8 8 8
4 3 2 2 1 1 1 0 1 1 1 1 1 1 2 2 3 3 2 2 3 2 2 3 4 4 4 4 3 3 3 2 2 2 3 3 3 3 3 5 8 8 7
3 3 2 1 1 1 0 0 1 1 1 1 1 1 2 2 2 2 2 3 3 3 2 3 4 4 4 4 4 3 3 2 1 2 2 2 3 3 3 3 3 4 7
3 3 2 2 1 0 0 1 1 1 1 1 1 1 2 2 2 3 2 3 3 3 3 4 4 5 4 4 4 3 2 2 2 1 1 2 2 2 3 3 2 2 3
3 3 2 2 2 1 1 1 1 1 1 1 1 1 1 2 2 2 3 3 3 3 4 4 4 3 3 3 3 4 3 2 1 1 1 1 1 2 2 3 3 3 2
4 4 3 3 2 2 1 1 1 1 1 1 0 0 1 1 2 2 3 3 3 4 4 5 5 5 4 3 3 3 3 4 3 2 1 1 1 2 2 2 3 2 2
4 4 3 3 3 2 1 1 2 2 2 2 1 1 1 1 1 2 3 3 3 3 4 4 4 5 6 5 4 2 1 2 3 3 2 2 2 2 2 2 2 2 2
4 4 3 3 2 2 1 1 2 2 2 1 1 2 2 1 1 2 3 3 3 3 4 4 5 5 5 5 5 3 2 2 2 3 3 3 2 2 2 2 2 2 2
4 3 3 2 2 2 2 1 1 2 2 1 2 2 2 1 1 1 2 3 3 3 4 5 5 6 5 6 5 4 4 4 4 3 3 3 3 3 3 2 3 2 2
Wind_Direction
149 150 131 110 105 98 94 91 95 97 103 109 112 110 111 109 106 103 102 100 97 97 97 94 92 89 89 89 87 85 83 81 80 79 79 81 85 87 85 82 85 85 83
175 162 138 123 109 104 98 93 91 97 95 105 111 109 111 112 109 107 105 103 100 98 98 98 95 91 89 90 89 87 85 83 81 79 83 88 83 86 84 74 70 85 86
151 155 151 125 116 112 106 99 98 99 100 100 110 110 111 114 112 109 106 104 102 99 98 98 97 92 91 89 91 90 88 86 83 80 98 96 92 87 88 84 84 88 87
156 154 151 123 122 118 114 107 107 105 104 102 104 111 112 116 116 113 109 106 102 101 99 98 96 94 92 91 91 91 89 87 80 83 93 90 93 90 91 89 89 89 89
145 146 129 113 125 123 122 119 113 111 108 106 104 107 111 115 118 118 113 108 104 100 98 96 96 94 93 93 92 91 89 87 83 90 87 89 91 92 93 91 91 92 91
137 140 123 105 118 122 124 127 126 122 117 112 110 106 115 121 122 119 113 109 106 102 100 99 97 96 95 94 93 91 90 86 110 92 88 88 92 95 95 93 92 93 93
130 135 130 103 107 115 121 127 130 127 125 119 115 113 116 121 123 120 113 111 112 109 106 104 102 100 97 96 95 93 86 75 93 90 86 85 88 97 99 97 96 95 94
107 126 131 110 94 104 113 122 122 121 118 118 118 115 119 113 116 118 115 113 114 115 113 108 106 104 101 98 96 92 84 75 97 90 87 86 82 99 101 98 97 96 94
105 110 110 142 132 112 108 112 121 120 116 113 114 111 111 109 110 119 119 116 114 113 113 110 108 104 102 98 95 89 79 56 94 89 86 84 84 101 104 103 100 97 95
83 87 84 129 145 150 143 110 98 113 121 121 108 102 104 114 121 122 128 120 117 114 109 110 108 104 100 96 91 85 79 93 94 94 85 83 90 103 106 105 102 101 99
24 16 42 79 117 137 148 139 134 113 109 126 120 106 128 149 144 136 122 114 114 113 109 107 107 104 103 98 88 82 95 94 96 86 80 77 94 104 106 106 104 103 101
272 312 331 330 182 172 155 151 164 164 149 146 143 147 155 151 142 133 116 110 110 109 108 103 103 110 116 115 105 106 106 97 94 92 78 75 93 101 103 105 107 106 104
251 279 318 307 225 180 169 155 150 161 159 152 144 153 160 149 145 139 133 126 124 125 122 115 117 121 119 111 111 106 90 93 86 90 83 76 89 98 103 107 110 110 110
284 291 312 321 286 210 177 167 160 153 157 147 139 144 147 144 152 148 141 139 141 138 130 130 125 120 119 116 116 104 92 85 81 75 73 71 84 96 103 109 113 114 113
311 312 319 318 308 266 194 175 165 169 159 143 140 145 139 144 147 155 150 134 133 135 138 136 133 131 125 116 109 104 95 87 91 88 84 68 72 86 99 106 111 117 116
319 313 312 310 302 282 226 187 176 164 146 134 145 134 145 148 147 156 149 143 139 147 145 143 139 136 130 121 108 100 96 93 89 91 88 88 66 65 82 102 104 106 115
309 313 315 311 311 302 265 199 170 141 136 135 144 150 139 141 153 146 153 146 146 148 148 145 138 133 129 123 115 102 92 87 88 89 83 85 89 68 65 84 97 100 102
302 302 308 316 323 319 317 210 146 133 139 132 142 160 152 157 153 151 157 151 151 152 150 149 148 139 134 129 117 102 92 85 83 79 79 76 83 93 79 68 77 87 93
301 297 301 309 320 325 320 283 135 136 129 122 133 163 161 171 157 155 155 148 151 151 152 150 153 150 143 133 119 103 93 88 91 83 84 72 74 82 95 86 76 72 77
303 296 291 294 317 336 353 47 134 124 113 103 116 144 152 166 163 158 151 153 152 149 154 150 146 150 145 133 115 96 80 82 84 80 89 83 81 82 85 96 99 81 67
321 308 302 290 292 305 96 191 190 168 157 139 152 142 144 149 155 160 162 163 161 157 157 152 147 150 147 142 134 121 93 87 83 83 89 94 100 102 98 97 98 104 94
322 311 296 293 282 264 242 219 215 185 190 189 188 152 128 150 157 163 169 171 174 164 157 154 154 155 149 165 164 158 165 174 143 95 108 112 121 122 119 114 112 108 108
335 325 311 293 284 287 266 172 133 138 142 147 151 151 154 142 161 161 167 171 178 170 169 171 171 168 167 172 180 181 180 191 164 163 164 163 163 145 144 139 131 127 124
328 322 318 315 296 294 271 196 184 199 212 218 208 200 179 151 166 180 172 169 171 172 175 180 183 182 175 180 186 213 239 142 170 165 178 185 203 190 175 166 162 162 150
331 329 327 326 322 318 291 221 211 214 228 230 195 197 177 154 173 199 180 177 176 180 182 182 186 190 186 186 189 185 170 176 194 180 184 187 204 214 207 198 195 188 176
344 343 336 337 338 341 336 276 225 218 207 196 197 210 198 172 191 208 191 187 188 187 190 190 190 198 196 191 193 194 188 184 188 185 188 190 200 202 205 205 207 200 191